21:25
Airports
History
Links
Donate
Help keep this website running!
PayPal
Bitcoin
This page is community maintained. The information is intended for PC simulator navigation or reference.
Always use approved charts for navigation.
13XS
Bethal
Bethal (13XS)
Jacksonville, Arkansas, United States (72076)
4
Lat/Lng:34° 56' 7.32" N / 92° 11' 31.53" W
34.935366 / -92.192093
Elevation:311'ft / 95mMSL
ID / ICAO:13XS
Runways:1
Longest:09-27
Grass 402m / 1,320ft
Nearby Weather21:13 GMT 2017-10-21
Nearby weather at KLRF, Little Rock Afb located 2.9 nautical miles from 13XS
Altimeter: 29.98
Visibility: 10.0 statute miles
Wind: 5 knots (from 170°)
Temp: 25°c / 77°f
Humidity: 83.5%

METAR: KLRF 212113Z AUTO 17005KT 10SM FEW028 25/22 A2998 RMK AO2 LTG DSNT E DZE2056RAB2056E13 TSE06 SLP153

(Powered by phpweather)
Nearby VORs <50NM
Nearby NDBs
Runway 09 / 27
Dimensions:402.3 x 30.5m 1320' x 100'ft
Surface:Grass
Runway 09 [A]Runway 27 [B]
Heading:093°TH 273°TH
Lat:
Lng:
34° 56' 7.66"N
92° 11' 39.53"W
34° 56' 6.98"N
92° 11' 23.54"W
User Notes and Comments
34° 56' 7.32" N / 92° 11' 31.53" W
Distance To
Airport ID:
Nearby Airports
(R) Little Rock Afb 2.9 NM
KLRF ( WX ) ESE 116°
4 Robert Chris Mc Intosh 6.3 NM
4X6 S 169°
4 Bobwhite Hill Ranch 6.4 NM
AR84 WNW 289°
(U) North Little Rock Muni 7.9 NM
KORK SSW 206°
(R) Robinson Aaf/ng 8.5 NM
KRBM SW 226°
(R) Shurley Field 9.0 NM
4AR1 NE 35°
(R) Cypress Creek Airpark 9.2 NM
6AR0 NNE 27°
VFR Chart
Flight Planning at SkyVector.com